Location: Góry Miechowskie
(50.3599°N, 20.1803°E)
Time: 03:39:06
(UTC+00:00)

Cosmos 2228 - Pass Details

Date: 18 September 2024
Orbit: 574 x 600 km, 82.5° (Epoch: 11 October)

Event Time Altitude Azimuth Distance (km) Brightness Sun altitude
Exits shadow 23:48:33 11° 65° (ENE) 1,901 6.0 -35.8°
Drops below altitude 10° 23:48:51 10° 61° (ENE) 1,939 6.1 -35.8°
Sets 23:52:30 0° 29° (NNE) 2,856 7.5 -35.6°
